Melfa, VA

6:40 PM EST on February 09, 2016 (GMT -0500)
Accomack County

Weather History for KMFV - December, 2012

Change the Weather History Date:

Sunday, December 23, 2012

  Actual Average (KWAL) Record (KWAL)
Temperature  
Mean Temperature 39 °F 39 °F  
Max Temperature 50 °F 47 °F 68 °F (2013)
Min Temperature 28 °F 30 °F 8 °F (1989)
Degree Days  
Heating Degree Days 26    
Month to date heating degree days  
Since 1 July heating degree days  
Cooling Degree Days 0    
Month to date cooling degree days  
Year to date cooling degree days  
Moisture  
Dew Point 26 °F    
Average Humidity 60    
Maximum Humidity 93    
Minimum Humidity 26    
Precipitation  
Precipitation 0.00 in 0.12 in 1.25 in (2013)
Month to date precipitation 2.62  
Year to date precipitation 40.03  
Sea Level Pressure  
Sea Level Pressure 30.03 in    
Wind  
Wind Speed 4 mph (ESE)    
Max Wind Speed 14 mph    
Max Gust Speed 20 mph    
Visibility 10 miles    
Events      
T = Trace of Precipitation, MM = Missing Value Source: NWS Daily Summary

Daily Weather History Graph

Daily Weather History Graph

Search for Another Location

Airport or City:

Trip Planner

Search our weather history database for the weather conditions in past years. The results will help you decide how hot, cold, wet, or windy it might be!

Date:

Astronomy

Dec. 23, 2012 Rise Set
Actual Time 7:15 AM EST 4:49 PM EST
Civil Twilight 6:46 AM EST 5:18 PM EST
Nautical Twilight 6:13 AM EST 5:51 PM EST
Astronomical Twilight 5:41 AM EST 6:23 PM EST
Moon 1:36 PM EST (12/23) 2:58 AM EST (12/23)
Length of Visible Light 10h 32m
Length of Day
9h 33m
Waxing Gibbous, 81% of the Moon is Illuminated
Dec 23
Waxing Gibbous
Dec 28
Full
Jan 4
Last Quarter
Jan 11
New
Jan 18
First Quarter

Hourly Weather History & Observations

Time (EST) Temp. Windchill Dew Point Humidity Pressure Visibility Wind Dir Wind Speed Gust Speed Precip Events Conditions
12:15 AM 35.6 °F 32.8 °F 26.6 °F 70% 30.04 in 10.0 mi ESE 3.5 mph - N/A   Clear
12:35 AM 35.6 °F 30.7 °F 26.6 °F 70% 30.04 in 10.0 mi ESE 5.8 mph - N/A   Clear
12:55 AM 35.6 °F - 24.8 °F 65% 30.04 in 10.0 mi Calm Calm - N/A   Clear
1:15 AM 33.8 °F 30.8 °F 24.8 °F 70% 30.04 in 10.0 mi ESE 3.5 mph - N/A   Clear
1:35 AM 32.0 °F - 26.6 °F 80% 30.05 in 10.0 mi Calm Calm - N/A   Clear
1:55 AM 32.0 °F - 26.6 °F 80% 30.05 in 10.0 mi Calm Calm - N/A   Clear
2:15 AM 30.2 °F 25.4 °F 26.6 °F 86% 30.06 in 10.0 mi ESE 4.6 mph - N/A   Clear
2:35 AM 30.2 °F 25.4 °F 24.8 °F 80% 30.06 in 10.0 mi ESE 4.6 mph - N/A   Clear
2:55 AM 33.8 °F 28.6 °F 24.8 °F 70% 30.07 in 10.0 mi SE 5.8 mph - N/A   Clear
3:15 AM 33.8 °F 29.6 °F 24.8 °F 70% 30.07 in 10.0 mi SE 4.6 mph - N/A   Clear
3:35 AM 32.0 °F 28.7 °F 24.8 °F 75% 30.07 in 10.0 mi ESE 3.5 mph - N/A   Clear
3:56 AM 30.2 °F - 24.8 °F 80% 30.06 in 10.0 mi Calm Calm - N/A   Clear
4:15 AM 30.2 °F 26.7 °F 24.8 °F 80% 30.06 in 10.0 mi ESE 3.5 mph - N/A   Clear
4:35 AM 28.4 °F 24.6 °F 24.8 °F 86% 30.06 in 10.0 mi ESE 3.5 mph - N/A   Clear
4:55 AM 30.2 °F - 24.8 °F 80% 30.07 in 10.0 mi Calm Calm - N/A   Clear
5:15 AM 30.2 °F 25.4 °F 24.8 °F 80% 30.07 in 10.0 mi ESE 4.6 mph - N/A   Clear
5:35 AM 28.4 °F 24.6 °F 24.8 °F 86% 30.07 in 10.0 mi ESE 3.5 mph - N/A   Clear
5:55 AM 28.4 °F - 24.8 °F 86% 30.08 in 10.0 mi Calm Calm - N/A   Clear
6:15 AM 28.4 °F - 24.8 °F 86% 30.08 in 10.0 mi Calm Calm - N/A   Clear
6:35 AM 28.4 °F - 24.8 °F 86% 30.08 in 10.0 mi Calm Calm - N/A   Clear
6:55 AM 28.4 °F - 26.6 °F 93% 30.09 in 10.0 mi Calm Calm - N/A   Clear
7:16 AM 28.4 °F - 24.8 °F 86% 30.09 in 10.0 mi Calm Calm - N/A   Clear
7:36 AM 28.4 °F - 24.8 °F 86% - 10.0 mi Calm Calm - N/A   Clear
7:55 AM 28.4 °F 24.6 °F 26.6 °F 93% 30.09 in 10.0 mi ESE 3.5 mph - N/A   Clear
8:15 AM 30.2 °F - 26.6 °F 86% 30.10 in 10.0 mi Calm Calm - N/A   Clear
8:35 AM 33.8 °F - 28.4 °F 81% 30.11 in 10.0 mi Calm Calm - N/A   Clear
8:55 AM 35.6 °F - 30.2 °F 81% 30.11 in 10.0 mi Calm Calm - N/A   Clear
9:15 AM 39.2 °F - 30.2 °F 70% 30.11 in 10.0 mi Calm Calm - N/A   Clear
9:35 AM 42.8 °F 41.1 °F 30.2 °F 61% 30.11 in 10.0 mi ESE 3.5 mph - N/A   Clear
9:55 AM 42.8 °F 40.1 °F 28.4 °F 57% 30.10 in 10.0 mi ESE 4.6 mph - N/A   Clear
10:15 AM 42.8 °F 40.1 °F 26.6 °F 53% 30.10 in 10.0 mi ESE 4.6 mph - N/A   Clear
10:35 AM 44.6 °F 41.4 °F 26.6 °F 49% 30.09 in 10.0 mi ESE 5.8 mph - N/A   Clear
10:55 AM 44.6 °F 41.4 °F 24.8 °F 46% 30.08 in 10.0 mi ESE 5.8 mph - N/A   Clear
11:15 AM 46.4 °F 42.4 °F 26.6 °F 46% 30.06 in 10.0 mi ESE 8.1 mph - N/A   Clear
11:35 AM 46.4 °F 41.9 °F 24.8 °F 43% 30.05 in 10.0 mi East 9.2 mph - N/A   Clear
11:56 AM 46.4 °F 42.4 °F 26.6 °F 46% 30.04 in 10.0 mi ESE 8.1 mph - N/A   Clear
12:16 PM 48.2 °F - 28.4 °F 46% 30.03 in 10.0 mi East 6.9 mph - N/A   Clear
12:35 PM 48.2 °F - 28.4 °F 46% 30.02 in 10.0 mi East 8.1 mph - N/A   Clear
1:15 PM 50.0 °F - 30.2 °F 47% 30.00 in 10.0 mi ESE 6.9 mph - N/A   Clear
1:35 PM 50.0 °F - 26.6 °F 40% 29.99 in 10.0 mi East 13.8 mph - N/A   Clear
1:55 PM 48.2 °F - 19.4 °F 32% 29.99 in 10.0 mi East 13.8 mph 19.6 mph N/A   Clear
2:15 PM 48.2 °F - 17.6 °F 30% 29.97 in 10.0 mi East 11.5 mph - N/A   Clear
2:35 PM 50.0 °F - 15.8 °F 26% 29.97 in 10.0 mi East 12.7 mph - N/A   Clear
2:55 PM 48.2 °F - 17.6 °F 30% 29.97 in 10.0 mi ESE 9.2 mph - N/A   Clear
3:16 PM 48.2 °F - 17.6 °F 30% 29.97 in 10.0 mi ESE 8.1 mph - N/A   Clear
3:36 PM 48.2 °F - 19.4 °F 32% 29.97 in 10.0 mi ESE 6.9 mph - N/A   Clear
3:55 PM 46.4 °F 41.5 °F 19.4 °F 34% 29.97 in 10.0 mi East 10.4 mph - N/A   Clear
4:15 PM 46.4 °F 42.4 °F 19.4 °F 34% 29.97 in 10.0 mi ESE 8.1 mph - N/A   Clear
4:35 PM 46.4 °F 42.9 °F 21.2 °F 37% 29.97 in 10.0 mi ESE 6.9 mph - N/A   Clear
4:55 PM 46.4 °F 42.9 °F 21.2 °F 37% 29.96 in 10.0 mi ESE 6.9 mph - N/A   Clear
5:15 PM 46.4 °F 43.5 °F 23.0 °F 40% 29.96 in 10.0 mi ESE 5.8 mph - N/A   Clear
5:35 PM 44.6 °F 42.2 °F 24.8 °F 46% 29.96 in 10.0 mi ESE 4.6 mph - N/A   Clear
5:55 PM 44.6 °F 42.2 °F 24.8 °F 46% 29.96 in 10.0 mi ESE 4.6 mph - N/A   Clear
6:15 PM 41.0 °F 39.0 °F 26.6 °F 57% 29.97 in 10.0 mi ESE 3.5 mph - N/A   Clear
6:35 PM 39.2 °F 37.0 °F 26.6 °F 61% 29.97 in 10.0 mi ESE 3.5 mph - N/A   Clear
6:55 PM 37.4 °F 33.8 °F 26.6 °F 65% 29.97 in 10.0 mi ESE 4.6 mph - N/A   Clear
7:15 PM 37.4 °F 33.8 °F 26.6 °F 65% 29.98 in 10.0 mi ESE 4.6 mph - N/A   Clear
7:35 PM 37.4 °F 32.8 °F 26.6 °F 65% 29.97 in 10.0 mi ESE 5.8 mph - N/A   Clear
7:55 PM 41.0 °F 36.4 °F 26.6 °F 57% 29.97 in 10.0 mi ESE 6.9 mph - N/A   Clear
8:15 PM 41.0 °F 36.4 °F 26.6 °F 57% 29.97 in 10.0 mi ESE 6.9 mph - N/A   Clear
8:35 PM 42.8 °F 38.6 °F 28.4 °F 57% 29.97 in 10.0 mi ESE 6.9 mph - N/A   Clear
8:55 PM 46.4 °F 42.4 °F 28.4 °F 50% 29.97 in 10.0 mi ESE 8.1 mph - N/A   Clear
9:15 PM 46.4 °F 41.9 °F 30.2 °F 53% 29.98 in 10.0 mi ESE 9.2 mph - N/A   Clear
9:35 PM 48.2 °F - 28.4 °F 46% 29.98 in 10.0 mi ESE 9.2 mph - N/A   Clear
9:55 PM 48.2 °F - 28.4 °F 46% 29.99 in 10.0 mi ESE 9.2 mph - N/A   Clear
10:15 PM 48.2 °F - 28.4 °F 46% 29.99 in 10.0 mi ESE 9.2 mph - N/A   Clear
10:35 PM 48.2 °F - 28.4 °F 46% 29.99 in 10.0 mi ESE 8.1 mph - N/A   Clear
10:55 PM 48.2 °F - 28.4 °F 46% 29.99 in 10.0 mi ESE 9.2 mph - N/A   Clear
11:16 PM 48.2 °F - 28.4 °F 46% 29.99 in 10.0 mi ESE 6.9 mph - N/A   Clear
11:35 PM 46.4 °F 42.4 °F 30.2 °F 53% 29.99 in 10.0 mi ESE 8.1 mph - N/A   Clear
11:55 PM 46.4 °F 45.2 °F 28.4 °F 50% 29.99 in 10.0 mi ESE 3.5 mph - N/A   Clear